| time (UTC) | temp C | wind direction | speed KPH | gust KPH | rain 1hr cm | rain 24hr cm | rain mn cm | humidity % | barometer mb |
| 20260906155109 | 35 | 284 | 0.0 | 0.0 | 0.00 | 0.00 | 0.00 | 61 | |
| 20260906153617 | 34 | 284 | 0.0 | 0.0 | 0.00 | 0.00 | 0.00 | 63 | |
| 20260906152055 | 33 | 284 | 0.0 | 3.2 | 0.00 | 0.00 | 0.00 | 68 | |
| 20260906150556 | 32 | 284 | 0.0 | 6.4 | 0.00 | 0.00 | 0.00 | 69 | |
| 20260906145056 | 32 | 284 | 0.0 | 3.2 | 0.00 | 0.00 | 0.00 | 68 | |
| 20260906143557 | 32 | 284 | 0.0 | 1.6 | 0.00 | 0.00 | 0.00 | 69 | |
| 20260906142116 | 31 | 284 | 0.0 | 0.0 | 0.00 | 0.00 | 0.00 | 73 | |
| 20260906140603 | 30 | 284 | 0.0 | 0.0 | 0.00 | 0.00 | 0.00 | 75 | |
| 20260906135105 | 29 | 284 | 0.0 | 0.0 | 0.00 | 0.00 | 0.00 | 78 | |
| 20260906133608 | 28 | 284 | 0.0 | 0.0 | 0.00 | 0.00 | 0.00 | 80 | |
| 20260906132110 | 27 | 284 | 0.0 | 0.0 | 0.00 | 0.00 | 0.00 | 82 | |
| 20260906130550 | 27 | 284 | 0.0 | 0.0 | 0.00 | 0.00 | 0.00 | 83 | |
| 20260906125053 | 26 | 284 | 0.0 | 0.0 | 0.00 | 0.00 | 0.00 | 84 | |
| 20260906123555 | 26 | 284 | 0.0 | 0.0 | 0.00 | 0.00 | 0.00 | 84 | |
| 20260906122115 | 26 | 284 | 0.0 | 1.6 | 0.00 | 0.00 | 0.00 | 83 | |
| 20260906120602 | 26 | 284 | 0.0 | 0.0 | 0.00 | 0.00 | 0.00 | 84 | |
| 20260906115116 | 26 | 284 | 0.0 | 1.6 | 0.00 | 0.00 | 0.00 | 82 | |
| 20260906113557 | 26 | 284 | 0.0 | 0.0 | 0.00 | 0.00 | 0.00 | 80 | |
| 20260906112058 | 27 | 284 | 0.0 | 1.6 | 0.00 | 0.00 | 0.00 | 81 | |
| 20260906110559 | 27 | 284 | 0.0 | 0.0 | 0.00 | 0.00 | 0.00 | 80 | |
| 20260906105102 | 27 | 284 | 0.0 | 0.0 | 0.00 | 0.00 | 0.00 | 79 | |
| 20260906103607 | 27 | 284 | 0.0 | 0.0 | 0.00 | 0.00 | 0.00 | 80 | |
| 20260906102109 | 27 | 284 | 0.0 | 0.0 | 0.00 | 0.00 | 0.00 | 79 | |
| 20260906100554 | 27 | 284 | 0.0 | 0.0 | 0.00 | 0.00 | 0.00 | 78 | |
| 20260906095051 | 27 | 284 | 0.0 | 0.0 | 0.00 | 0.00 | 0.00 | 78 | |
| 20260906093616 | 27 | 284 | 0.0 | 0.0 | 0.00 | 0.00 | 0.00 | 77 | |
| 20260906092052 | 27 | 284 | 0.0 | 0.0 | 0.00 | 0.00 | 0.00 | 77 | |
| 20260906090553 | 27 | 284 | 0.0 | 0.0 | 0.00 | 0.00 | 0.00 | 77 | |
| 20260906085054 | 28 | 284 | 0.0 | 0.0 | 0.00 | 0.00 | 0.00 | 76 | |
| 20260906083555 | 28 | 284 | 0.0 | 0.0 | 0.00 | 0.00 | 0.00 | 76 | |
| 20260906082050 | 27 | 284 | 0.0 | 0.0 | 0.00 | 0.00 | 0.00 | 75 | |
| 20260906010559 | 32 | 284 | 0.0 | 1.6 | 0.00 | 0.00 | 0.00 | 65 | |
| 20260906005051 | 32 | 284 | 0.0 | 0.0 | 0.00 | 0.00 | 0.00 | 64 | |
| 20260906003556 | 33 | 284 | 0.0 | 0.0 | 0.00 | 0.00 | 0.00 | 62 | |
| 20260906002056 | 33 | 284 | 0.0 | 3.2 | 0.00 | 0.00 | 0.00 | 60 | |
| 20260906000619 | 35 | 284 | 0.0 | 0.0 | 0.00 | 0.00 | 0.00 | 58 | |
| 20260905235101 | 35 | 284 | 0.0 | 0.0 | 0.00 | 0.00 | 0.00 | 58 | |
| 20260905233605 | 35 | 284 | 0.0 | 0.0 | 0.00 | 0.00 | 0.00 | 56 | |
| 20260905232114 | 36 | 284 | 0.0 | 0.0 | 0.00 | 0.00 | 0.00 | 56 | |
| 20260905230557 | 36 | 284 | 0.0 | 0.0 | 0.00 | 0.00 | 0.00 | 53 | |
| 20260905225056 | 36 | 284 | 0.0 | 0.0 | 0.00 | 0.00 | 0.00 | 53 | |
| 20260905223559 | 36 | 284 | 0.0 | 0.0 | 0.00 | 0.00 | 0.00 | 51 | |
| 20260905222102 | 37 | 284 | 0.0 | 0.0 | 0.00 | 0.00 | 0.00 | 51 | |
| 20260905220550 | 37 | 284 | 0.0 | 0.0 | 0.00 | 0.00 | 0.00 | 50 | |
| 20260905215050 | 37 | 284 | 0.0 | 1.6 | 0.00 | 0.00 | 0.00 | 49 | |
| 20260905213554 | 37 | 284 | 0.0 | 0.0 | 0.00 | 0.00 | 0.00 | 46 | |
| 20260905212100 | 37 | 284 | 0.0 | 1.6 | 0.00 | 0.00 | 0.00 | 44 | |
| 20260905210624 | 37 | 283 | 0.0 | 0.0 | 0.00 | 0.00 | 0.00 | 47 | |
| 20260905205058 | 37 | 360 | 0.0 | 0.0 | 0.00 | 0.00 | 0.00 | 47 | |
| 20260905203604 | 37 | 360 | 0.0 | 0.0 | 0.00 | 0.00 | 0.00 | 49 | |
| 20260905202106 | 37 | 360 | 0.0 | 3.2 | 0.00 | 0.00 | 0.00 | 49 | |
| 20260905200551 | 37 | 304 | 0.0 | 3.2 | 0.00 | 0.00 | 0.00 | 46 | |
| 20260905195051 | 37 | 306 | 0.0 | 3.2 | 0.00 | 0.00 | 0.00 | 47 | |
| 20260905193554 | 37 | 231 | 0.0 | 1.6 | 0.00 | 0.00 | 0.00 | 46 | |
| 20260905192102 | 37 | 273 | 0.0 | 3.2 | 0.00 | 0.00 | 0.00 | 47 | |
| 20260905190605 | 37 | 269 | 0.0 | 0.0 | 0.00 | 0.00 | 0.00 | 48 | |
| 20260905185058 | 36 | 300 | 0.0 | 0.0 | 0.00 | 0.00 | 0.00 | 50 | |
| 20260905183604 | 36 | 300 | 0.0 | 3.2 | 0.00 | 0.00 | 0.00 | 51 | |
| 20260905182058 | 36 | 300 | 0.0 | 0.0 | 0.00 | 0.00 | 0.00 | 53 | |
| 20260905180604 | 36 | 300 | 0.0 | 0.0 | 0.00 | 0.00 | 0.00 | 50 | |
| 20260905175101 | 37 | 300 | 0.0 | 0.0 | 0.00 | 0.00 | 0.00 | 51 | |
| 20260905173603 | 36 | 300 | 0.0 | 0.0 | 0.00 | 0.00 | 0.00 | 51 | |
| 20260905172108 | 36 | 300 | 0.0 | 0.0 | 0.00 | 0.00 | 0.00 | 54 | |
| 20260905170609 | 36 | 300 | 0.0 | 0.0 | 0.00 | 0.00 | 0.00 | 54 | |
| 20260905165051 | 35 | 300 | 0.0 | 0.0 | 0.00 | 0.00 | 0.00 | 57 | |
| 20260905163552 | 35 | 300 | 0.0 | 3.2 | 0.00 | 0.00 | 0.00 | 61 | |
| 20260905162050 | 34 | 300 | 0.0 | 0.0 | 0.00 | 0.00 | 0.00 | 63 | |
| 20260905160556 | 33 | 299 | 0.0 | 0.0 | 0.00 | 0.00 | 0.00 | 62 |